Content
SEND FEEDBACK

Daily
Averages
Monthly
Summary
United States of America

SNOWMASS VILLAGE, COLORADO


Home > North America > United States > Colorado
Elevation: 8405 feet     Latitude: 39 11N     Longitude: 106 50W

WEATHER
 
SELECT A DAY
Number of Records: 189,549;   Date Range: 1/1/95 - 11/26/14
 
SHARE

PRINT THIS DATA

[ ← Previous Day ]
WEATHER ALMANAC - JANUARY 31, 2013
[ Next Day → ]
[ °C ]   °F
Weather ElementAverageHighLow
Temperature19.8 °F30.9 °F (1:53 pm)15.1 °F (10:53 pm)
Dewpoint15.2 °F19.9 °F (10:53 am)10 °F (10:53 pm)
Humidity83.1 %93 % (3:06 am)57 % (1:53 pm)
Barometer30.18 in30.33 in (9:53 am)30.07 in (1:14 am)
Wind Speed2.7 mph8.1 mph (4:53 pm)
Weather ElementAverage
Visibility4.7 mi
Wind DirectionSE (135.2 °)

Weather ElementTotal
Precipitation0.05 in
Heating Degree Days42 (Base 65)
Averaged from 48 records on January 31, 2013
WEATHER CONDITIONS BREAKOUT
WIND DIRECTION BREAKOUT
WEATHER BY HOUR - JANUARY 31, 2013
[ °C ]   °F
Local TimeTemperatureDewpointHumidityBarometerVisibilityWind DirectionWind SpeedGust SpeedPrecipitationEventsConditions
1:14 AM17.6 °F14.0 °F86 %30.07 in2.0 miCalm0.00 inSnowLight Snow
1:23 AM17.6 °F14.0 °F86 %30.07 in1.8 miCalm0.00 inSnowLight Snow
1:28 AM17.6 °F14.0 °F86 %30.07 in2.0 miCalm0.00 inSnowLight Snow
1:41 AM17.6 °F14.0 °F86 %30.08 in3.0 miCalm0.00 inSnowLight Snow
1:51 AM17.6 °F14.0 °F86 %30.07 in2.0 miCalm0.00 inSnowLight Snow
1:53 AM17.1 °F14.0 °F88 %30.16 in2.0 miCalm0.01 inSnowLight Snow
2:00 AM17.6 °F14.0 °F86 %30.08 in3.0 miCalm0.00 inSnowLight Snow
2:07 AM17.6 °F14.0 °F86 %30.07 in4.0 miNW (310°)3.5 mph0.00 inSnowLight Snow
2:33 AM17.6 °F14.0 °F86 %30.08 in5.0 miCalm0.00 inSnowLight Snow
2:53 AM17.1 °F14.0 °F88 %30.18 in2.0 miNorth (350°)4.6 mph0.00 inSnowLight Snow
3:02 AM17.6 °F14.0 °F86 %30.09 in4.0 miNNW (340°)4.6 mph0.00 inSnowLight Snow
3:06 AM15.8 °F14.0 °F93 %30.09 in2.5 miNNW (340°)4.6 mph0.00 inSnowLight Snow
3:16 AM15.8 °F14.0 °F93 %30.10 in1.5 miNNW (330°)3.5 mph0.00 inSnowLight Snow
3:21 AM17.6 °F14.0 °F86 %30.10 in2.0 miNNW (330°)3.5 mph0.00 inSnowLight Snow
3:34 AM17.6 °F14.0 °F86 %30.09 in1.8 miCalm0.00 inSnowLight Snow
3:41 AM17.6 °F15.8 °F93 %30.10 in1.2 miCalm0.01 inSnowLight Snow
3:53 AM17.1 °F14.0 °F88 %30.21 in1.2 miCalm0.01 inSnowLight Snow
4:02 AM17.6 °F14.0 °F86 %30.11 in3.0 miCalm0.00 inSnowLight Snow
4:09 AM17.6 °F14.0 °F86 %30.12 in4.0 miCalm0.00 inSnowLight Snow
4:21 AM17.6 °F14.0 °F86 %30.13 in3.0 miSSE (160°)3.5 mph0.00 inSnowLight Snow
4:53 AM18.0 °F15.1 °F88 %30.22 in4.0 miSouth (190°)4.6 mph0.00 inSnowLight Snow
5:05 AM17.6 °F15.8 °F93 %30.14 in2.5 miSW (220°)3.5 mph0.00 inSnowLight Snow
5:15 AM17.6 °F15.8 °F93 %30.14 in1.8 miSW (220°)3.5 mph0.00 inSnowLight Snow
5:53 AM19.0 °F15.1 °F85 %30.24 in1.8 miSouth (180°)3.5 mph0.01 inSnowLight Snow
6:01 AM19.4 °F15.8 °F86 %30.15 in2.5 miSW (220°)3.5 mph0.00 inSnowLight Snow
6:08 AM19.4 °F15.8 °F86 %30.15 in3.0 miSSW (210°)3.5 mph0.00 inSnowLight Snow
6:18 AM19.4 °F15.8 °F86 %30.14 in3.0 miSSW (200°)4.6 mph0.00 inSnowLight Snow
6:22 AM19.4 °F15.8 °F86 %30.14 in2.5 miSSW (200°)4.6 mph0.00 inSnowLight Snow
6:32 AM19.4 °F15.8 °F86 %30.15 in3.0 miSSW (210°)4.6 mph0.00 inSnowLight Snow
6:53 AM18.0 °F15.1 °F88 %30.25 in3.0 miCalm0.00 inSnowLight Snow
7:53 AM19.0 °F16.0 °F88 %30.27 in1.5 miCalm0.00 inSnowLight Snow
8:53 AM21.0 °F17.1 °F85 %30.30 in1.5 miCalm0.01 inSnowLight Snow
9:28 AM21.2 °F17.6 °F86 %30.24 in3.0 miSouth (180°)4.6 mph0.00 inSnowLight Snow
9:53 AM21.9 °F19.0 °F89 %30.33 in4.0 miSSW (210°)3.5 mph0.00 inOvercast
10:53 AM25.0 °F19.9 °F81 %30.32 in6.0 miCalm0.00 inSnowLight Snow
11:53 AM26.1 °F18.0 °F71 %30.31 in10.0 miNW (310°)4.6 mph0.00 inOvercast
12:53 PM30.0 °F19.0 °F64 %30.26 in10.0 miNW (320°)5.8 mphPartly Cloudy
1:53 PM30.9 °F17.1 °F57 %30.23 in10.0 miNW (320°)6.9 mphPartly Cloudy
2:53 PM30.0 °F17.1 °F59 %30.21 in10.0 miNW (320°)3.5 mphPartly Cloudy
3:53 PM28.0 °F17.1 °F63 %30.20 in10.0 miCalmPartly Cloudy
4:53 PM28.0 °F19.0 °F69 %30.22 in10.0 miNorth (10°)8.1 mphPartly Cloudy
5:53 PM27.0 °F19.9 °F75 %30.25 in10.0 miNorth (10°)4.6 mphMostly Cloudy
6:53 PM23.0 °F18.0 °F81 %30.30 in10.0 miCalmOvercast
7:53 PM19.9 °F14.0 °F78 %30.33 in10.0 miCalmPartly Cloudy
8:53 PM16.0 °F12.0 °F84 %30.33 in10.0 miSouth (190°)4.6 mphScattered Clouds
9:53 PM17.1 °F12.0 °F81 %30.32 in10.0 miSSW (200°)5.8 mphPartly Cloudy
10:53 PM15.1 °F10.0 °F80 %30.32 in10.0 miSSW (200°)5.8 mphMostly Cloudy
11:53 PM17.1 °F10.0 °F74 %30.28 in10.0 miSSW (210°)6.9 mphOvercast
Hourly data recorded from KASE, located miles away from Snowmass Village, Colorado







STORIES FROM OUR PARTNERS